Weather History for KSAZ - November, 2012

Change the Weather History Date:

Wednesday, November 7, 2012

  Actual Average Record
Temperature  
Mean Temperature 38 °F -  
Max Temperature 44 °F 39 °F 66 °F (1999)
Min Temperature 33 °F 24 °F 1 °F (2003)
Degree Days  
Heating Degree Days 26    
Moisture  
Dew Point 32 °F    
Average Humidity 79    
Maximum Humidity 100    
Minimum Humidity 57    
Precipitation  
Precipitation 0.00 in - - ()
Sea Level Pressure  
Sea Level Pressure 30.01 in    
Wind  
Wind Speed 5 mph (SSW)    
Max Wind Speed 17 mph    
Max Gust Speed 22 mph    
Visibility 10 miles    
Events      
Averages and records for this station are not official NWS values.
T = Trace of Precipitation, MM = Missing Value Source: NWS Daily Summary

Daily Weather History Graph

Daily Weather History Graph

Search for Another Location

Airport or City:

Trip Planner

Search our weather history database for the weather conditions in past years. The results will help you decide how hot, cold, wet, or windy it might be!

Date:

Astronomy

Nov. 07, 2012 Rise Set
Actual Time 7:10 AM CST 4:55 PM CST
Civil Twilight 6:37 AM CST 5:27 PM CST
Nautical Twilight 6:02 AM CST 6:03 PM CST
Astronomical Twilight 5:26 AM CST 6:38 PM CST
Moon No Moon Rise 1:26 PM CST (11/7)
Length of Visible Light 10h 49m
Length of Day
9h 45m
Last Quarter, 43% of the Moon is Illuminated
Nov 7
Last Quarter
Nov 13
New
Nov 20
First Quarter
Nov 28
Full
Dec 6
Last Quarter

Hourly Weather History & Observations

Time (CST) Temp. Windchill Dew Point Humidity Pressure Visibility Wind Dir Wind Speed Gust Speed Precip Events Conditions
12:13 AM 35.6 °F 29.9 °F 33.8 °F 93% 29.99 in 10.0 mi NNW 6.9 mph - N/A   Overcast
12:34 AM 35.6 °F 29.9 °F 33.8 °F 93% 29.99 in 10.0 mi NNW 6.9 mph - N/A   Overcast
12:53 AM 35.6 °F 30.7 °F 33.8 °F 93% 29.99 in 10.0 mi NW 5.8 mph - N/A   Overcast
1:13 AM 35.6 °F 30.7 °F 33.8 °F 93% 30.00 in 10.0 mi NW 5.8 mph - N/A   Overcast
1:34 AM 35.6 °F 31.7 °F 33.8 °F 93% 30.00 in 10.0 mi WNW 4.6 mph - N/A   Overcast
1:53 AM 35.6 °F 31.7 °F 33.8 °F 93% 30.01 in 10.0 mi WNW 4.6 mph - N/A   Overcast
2:13 AM 35.6 °F 32.8 °F 33.8 °F 93% 30.01 in 10.0 mi WNW 3.5 mph - N/A   Overcast
2:53 AM 35.6 °F 31.7 °F 33.8 °F 93% 30.02 in 10.0 mi WNW 4.6 mph - N/A   Overcast
3:14 AM 35.6 °F 31.7 °F 33.8 °F 93% 30.03 in 10.0 mi WNW 4.6 mph - N/A   Overcast
3:33 AM 35.6 °F 31.7 °F 33.8 °F 93% 30.03 in 10.0 mi WNW 4.6 mph - N/A   Overcast
3:53 AM 35.6 °F 31.7 °F 33.8 °F 93% 30.03 in 10.0 mi WNW 4.6 mph - N/A   Overcast
4:33 AM 35.6 °F 32.8 °F 33.8 °F 93% 30.04 in 10.0 mi WNW 3.5 mph - N/A   Overcast
4:53 AM 35.6 °F 32.8 °F 33.8 °F 93% 30.04 in 10.0 mi WNW 3.5 mph - N/A   Overcast
5:14 AM 33.8 °F - 33.8 °F 100% 30.04 in 10.0 mi Calm Calm - N/A   Overcast
5:33 AM 33.8 °F 30.8 °F 33.8 °F 100% 30.04 in 10.0 mi West 3.5 mph - N/A   Overcast
5:53 AM 33.8 °F 30.8 °F 33.8 °F 100% 30.05 in 10.0 mi West 3.5 mph - N/A   Overcast
6:14 AM 33.8 °F 30.8 °F 33.8 °F 100% 30.05 in 10.0 mi West 3.5 mph - N/A   Overcast
6:33 AM 33.8 °F 30.8 °F 33.8 °F 100% 30.05 in 10.0 mi West 3.5 mph - N/A   Overcast
6:53 AM 33.8 °F - 33.8 °F 100% 30.06 in 10.0 mi Calm Calm - N/A   Overcast
7:14 AM 33.8 °F - 33.8 °F 100% 30.06 in 10.0 mi Calm Calm - N/A   Overcast
7:33 AM 33.8 °F - 33.8 °F 100% 30.06 in 10.0 mi Calm Calm - N/A   Overcast
7:53 AM 35.6 °F - 33.8 °F 93% 30.06 in 10.0 mi Calm Calm - N/A   Overcast
8:14 AM 35.6 °F - 33.8 °F 93% 30.07 in 10.0 mi Calm Calm - N/A   Overcast
8:33 AM 35.6 °F 32.8 °F 35.6 °F 100% 30.07 in 10.0 mi WSW 3.5 mph - N/A   Overcast
8:53 AM 35.6 °F 32.8 °F 35.6 °F 100% 30.07 in 10.0 mi WSW 3.5 mph - N/A   Mostly Cloudy
9:14 AM 37.4 °F 34.9 °F 35.6 °F 93% 30.07 in 10.0 mi West 3.5 mph - N/A   Scattered Clouds
9:33 AM 37.4 °F 34.9 °F 35.6 °F 93% 30.07 in 10.0 mi WNW 3.5 mph - N/A   Clear
9:54 AM 39.2 °F - 33.8 °F 81% 30.07 in 10.0 mi Calm Calm - N/A   Clear
10:13 AM 39.2 °F - 33.8 °F 81% 30.08 in 10.0 mi Calm Calm - N/A   Scattered Clouds
10:34 AM 41.0 °F - 33.8 °F 76% 30.07 in 10.0 mi Calm Calm - N/A   Scattered Clouds
10:53 AM 42.8 °F 41.1 °F 33.8 °F 70% 30.08 in 10.0 mi West 3.5 mph - N/A   Clear
11:13 AM 41.0 °F - 32.0 °F 70% 30.06 in 10.0 mi Calm Calm - N/A   Clear
11:34 AM 44.6 °F 42.2 °F 32.0 °F 61% 30.05 in 10.0 mi West 4.6 mph - N/A   Mostly Cloudy
11:53 AM 42.8 °F - 30.2 °F 61% 30.05 in 10.0 mi Calm Calm - N/A   Overcast
12:13 PM 44.6 °F 41.4 °F 30.2 °F 57% 30.05 in 10.0 mi SW 5.8 mph - N/A   Overcast
12:33 PM 44.6 °F 41.4 °F 30.2 °F 57% 30.04 in 10.0 mi SW 5.8 mph - N/A   Overcast
12:53 PM 44.6 °F 42.2 °F 30.2 °F 57% 30.02 in 10.0 mi SW 4.6 mph - N/A   Mostly Cloudy
1:13 PM 44.6 °F 41.4 °F 30.2 °F 57% 30.02 in 10.0 mi SW 5.8 mph - N/A   Scattered Clouds
1:33 PM 44.6 °F 40.7 °F 30.2 °F 57% 30.02 in 10.0 mi WSW 6.9 mph - N/A   Mostly Cloudy
1:53 PM 44.6 °F 40.7 °F 30.2 °F 57% 30.02 in 10.0 mi South 6.9 mph - N/A   Overcast
2:13 PM 44.6 °F 40.7 °F 30.2 °F 57% 30.01 in 10.0 mi SSW 6.9 mph - N/A   Overcast
2:33 PM 44.6 °F 41.4 °F 30.2 °F 57% 30.01 in 10.0 mi South 5.8 mph - N/A   Mostly Cloudy
2:53 PM 44.6 °F 40.7 °F 30.2 °F 57% 30.00 in 10.0 mi SSE 6.9 mph - N/A   Scattered Clouds
3:13 PM 44.6 °F 38.8 °F 30.2 °F 57% 29.98 in 10.0 mi South 11.5 mph - N/A   Scattered Clouds
3:38 PM 42.8 °F 40.1 °F 30.2 °F 61% 30.00 in 10.0 mi South 4.6 mph - N/A   Mostly Cloudy
3:53 PM 42.8 °F 38.6 °F 30.2 °F 61% 30.01 in 10.0 mi South 6.9 mph - N/A   Mostly Cloudy
4:13 PM 42.8 °F 39.3 °F 30.2 °F 61% 30.00 in 10.0 mi South 5.8 mph - N/A   Scattered Clouds
4:33 PM 39.2 °F 37.0 °F 32.0 °F 75% 30.01 in 10.0 mi South 3.5 mph - N/A   Scattered Clouds
4:53 PM 41.0 °F 37.1 °F 32.0 °F 70% 30.00 in 10.0 mi SSE 5.8 mph - N/A   Mostly Cloudy
5:14 PM 41.0 °F 38.0 °F 30.2 °F 65% 29.99 in 10.0 mi SE 4.6 mph - N/A   Scattered Clouds
5:33 PM 41.0 °F 38.0 °F 32.0 °F 70% 29.99 in 10.0 mi SE 4.6 mph - N/A   Mostly Cloudy
5:54 PM 41.0 °F 36.4 °F 32.0 °F 70% 29.99 in 10.0 mi SSE 6.9 mph - N/A   Scattered Clouds
6:13 PM 41.0 °F 38.0 °F 32.0 °F 70% 29.99 in 10.0 mi SE 4.6 mph - N/A   Clear
6:33 PM 39.2 °F 35.0 °F 32.0 °F 75% 29.98 in 10.0 mi SE 5.8 mph - N/A   Clear
6:54 PM 39.2 °F 34.2 °F 32.0 °F 75% 29.98 in 10.0 mi SSE 6.9 mph - N/A   Clear
7:13 PM 39.2 °F 33.6 °F 32.0 °F 75% 29.97 in 10.0 mi SE 8.1 mph - N/A   Clear
7:33 PM 39.2 °F 33.6 °F 32.0 °F 75% 29.97 in 10.0 mi SSE 8.1 mph - N/A   Clear
7:54 PM 39.2 °F 34.2 °F 32.0 °F 75% 29.97 in 10.0 mi SSE 6.9 mph - N/A   Clear
8:13 PM 39.2 °F 33.6 °F 32.0 °F 75% 29.97 in 10.0 mi SSE 8.1 mph - N/A   Scattered Clouds
8:34 PM 39.2 °F 32.5 °F 30.2 °F 70% 29.96 in 10.0 mi SSE 10.4 mph - N/A   Clear
8:53 PM 39.2 °F 32.5 °F 30.2 °F 70% 29.96 in 10.0 mi SSE 10.4 mph 17.3 mph N/A   Mostly Cloudy
9:13 PM 39.2 °F 32.0 °F 32.0 °F 75% 29.96 in 10.0 mi SSE 11.5 mph - N/A   Scattered Clouds
9:34 PM 39.2 °F 31.2 °F 32.0 °F 75% 29.95 in 10.0 mi SSE 13.8 mph 19.6 mph N/A   Scattered Clouds
9:53 PM 39.2 °F 31.2 °F 32.0 °F 75% 29.95 in 10.0 mi SSE 13.8 mph 18.4 mph N/A   Mostly Cloudy
10:13 PM 39.2 °F 31.2 °F 32.0 °F 75% 29.95 in 10.0 mi SSE 13.8 mph - N/A   Scattered Clouds
10:34 PM 39.2 °F 31.6 °F 32.0 °F 75% 29.95 in 10.0 mi South 12.7 mph - N/A   Scattered Clouds
10:53 PM 39.2 °F 32.5 °F 32.0 °F 75% 29.94 in 10.0 mi South 10.4 mph - N/A   Scattered Clouds
11:13 PM 37.4 °F 29.8 °F 32.0 °F 81% 29.94 in 10.0 mi South 11.5 mph - N/A   Clear
11:34 PM 37.4 °F 28.9 °F 30.2 °F 75% 29.94 in 10.0 mi South 13.8 mph 18.4 mph N/A   Clear
11:53 PM 37.4 °F 27.8 °F 32.0 °F 81% 29.94 in 10.0 mi South 17.3 mph 21.9 mph N/A   Clear